Home > Weather > Haltern am See > Past weeks

Flag for Germany Weather for the Past 2 Weeks in Haltern am See, North Rhine-Westphalia, Germany

Now
41 °F

Drizzle. Low clouds.


Feels Like: 38 °F
Forecast: 41 / 56 °F
Wind: 5 mph from Northwest

Location: Dortmund / Wickede

Current Time: Apr 30, 2016 at 8:07:18 AM

Latest Report: Apr 30, 2016 at 7:20 AM


Visibility: 4 mi

Pressure: 30.04 "Hg

Humidity: 87%

Dew Point: 37 °F

Location of Haltern am SeeLocation

Historic Weather in Haltern am See — Graph

°F

Haltern am See Temperature Yesterday

Maximum temperature yesterday: 52 °F (at 12:50 PM)
Minimum temperature yesterday: 37 °F (at 5:20 AM)
Average temperature yesterday: 47 °F

High & Low Weather Summary for the Past Weeks

 TemperatureHumidityPressure
High63 °F (Apr 21, 4:50 PM)93% (Apr 20, 7:20 AM)30.48 "Hg (Apr 20, 7:20 AM)
Low32 °F (Apr 20, 5:50 AM)33% (Apr 20, 6:50 PM)29.45 "Hg (Apr 26, 1:50 PM)
Average45 °F64%29.92 "Hg
* Reported Apr 15 6:50 AM — Apr 30 6:20 AM, Haltern am See, Weather by CustomWeather, © 2016

Note: Actual official high and low records may vary slightly from our data, if they occured in-between our weather recording intervals... More about our weather records

Advertising

Haltern am See Weather History for the Previous 24 Hours

Scroll right to see more
 ConditionsComfort  
Time TempWeatherWind HumidityBarometerVisibility
6:20 AM
Sat, Apr 30
41 °FPassing clouds.5 mph87%30.01 "Hg6 mi
5:50 AM41 °FLight rain. Passing clouds.3 mph87%30.01 "HgN/A
5:20 AM43 °FPassing clouds.5 mph81%30.01 "HgN/A
9:50 PM
Fri, Apr 29
45 °FPassing clouds.7 mph76%30.01 "HgN/A
9:20 PM45 °FSunny.6 mph76%30.01 "Hg10 mi
8:50 PM45 °FSunny.6 mph76%30.01 "Hg10 mi
8:20 PM45 °FSunny.3 mph76%29.98 "Hg10 mi
7:50 PM45 °FPassing clouds.5 mph76%29.98 "HgN/A
7:20 PM45 °FSprinkles. Partly sunny.7 mph76%29.98 "HgN/A
6:50 PM46 °FPassing clouds.6 mph76%29.95 "HgN/A
6:20 PM48 °FPartly sunny.5 mph71%29.95 "HgN/A
5:50 PM52 °FSunny.13 mph44%29.95 "Hg10 mi
5:20 PM52 °FPassing clouds.14 mph44%29.95 "HgN/A
4:50 PM52 °FScattered showers. Clear.14 mph47%29.95 "HgN/A
4:20 PM50 °FScattered showers. Clear.14 mph50%29.95 "HgN/A
3:50 PM52 °FScattered showers. Partly sunny.16 mph47%29.95 "HgN/A
3:20 PM50 °FScattered showers. Clear.14 mph50%29.95 "HgN/A
2:50 PM50 °FSprinkles. Clear.17 mph47%29.95 "HgN/A
2:20 PM52 °FSunny.15 mph44%29.95 "Hg10 mi
1:50 PM52 °FSunny.16 mph47%29.95 "Hg10 mi
1:20 PM52 °FPassing clouds.15 mph44%29.92 "HgN/A
12:50 PM52 °FSunny.18 mph44%29.95 "Hg10 mi
12:20 PM50 °FPartly sunny.17 mph47%29.92 "HgN/A
11:50 AM50 °FPartly sunny.16 mph50%29.95 "HgN/A
11:20 AM50 °FPartly sunny.17 mph50%29.92 "HgN/A
10:50 AM50 °FScattered clouds.20 mph47%29.92 "HgN/A
10:20 AM50 °FSunny.22 mph54%29.92 "Hg10 mi
9:50 AM48 °FSunny.18 mph54%29.92 "Hg10 mi
9:20 AM46 °FSunny.18 mph53%29.95 "Hg10 mi
8:50 AM45 °FSunny.16 mph57%29.95 "Hg10 mi
8:20 AM43 °FSunny.15 mph61%29.95 "Hg10 mi
Weather by CustomWeather, © 2016

See weather overviewHow to use our weather pages